Location: Eschertshofen
(49.3064°N, 11.5756°E)
Time: 17:51:18
(UTC+00:00)

Spot 2 Rocket - Pass Details

Date: 23 June 2021
Orbit: 757 x 772 km, 98.5° (Epoch: 01 August)

Event Time Altitude Azimuth Distance (km) Brightness Sun altitude
Exits shadow 20:16:34 - 159° (SSE) 2,565 5.6 -7.0°
Reaches altitude 10° 20:17:14 10° 159° (SSE) 2,295 5.4 -7.1°
Maximum altitude 20:22:18 80° 73° (ENE) 784 3.5 -7.6°
Drops below altitude 10° 20:27:25 10° 347° (NNW) 2,321 7.2 -8.2°
Sets 20:29:44 0° 347° (NNW) 3,254 8.1 -8.4°
